• In Belarus
  • List of Countries
  • For 7 days
  • Water Temperature
  • Satellite Maps
  • Weather Map
  • Weather Widgets
  • user-avatar
    Login

    Hourly Weather Kosiv

    Today, 19 February, Monday

    Time Temperature Precipitation Wind Pressure Humidity
    00:00 -6°C° 0 mm 2 mps 735 mmHg 100%
    01:00 -6°C° 0.1 mm 2 mps 735 mmHg 100%
    02:00 -6°C° 0 mm 0 mps 736 mmHg 100%
    03:00 -4°C° 0 mm 1 mps 735 mmHg 100%
    04:00 -4°C° 0 mm 1 mps 735 mmHg 100%
    05:00 -7°C° 0 mm 2 mps 735 mmHg 100%
    06:00 -7°C° 0 mm 2 mps 735 mmHg 100%
    07:00 -7°C° 0 mm 2 mps 735 mmHg 100%
    08:00 -8°C° 0 mm 2 mps 736 mmHg 100%
    09:00 -8°C° 0 mm 2 mps 736 mmHg 100%
    10:00 -4°C° 0 mm 1 mps 736 mmHg 100%
    11:00 -4°C° 0 mm 0 mps 736 mmHg 99%
    12:00 -3°C° 0 mm 1 mps 736 mmHg 97%
    13:00 -2°C° 0 mm 1 mps 736 mmHg 96%
    14:00 -4°C° 0 mm 2 mps 735 mmHg 98%
    15:00 -4°C° 0 mm 2 mps 735 mmHg 100%
    16:00 -4°C° 0 mm 2 mps 735 mmHg 100%
    17:00 -5°C° 0 mm 2 mps 735 mmHg 100%
    18:00 -5°C° 0 mm 2 mps 735 mmHg 100%
    19:00 -4°C° 0 mm 1 mps 735 mmHg 100%
    20:00 -6°C° 0 mm 1 mps 734 mmHg 100%
    21:00 -7°C° 0 mm 1 mps 734 mmHg 100%
    22:00 -7°C° 0 mm 1 mps 734 mmHg 100%
    23:00 -8°C° 0 mm 1 mps 734 mmHg 96%

    Tomorrow, 20 February, Tuesday

    Time Temperature Precipitation Wind Pressure Humidity
    00:00 -8°C° 0 mm 1 mps 734 mmHg 94%
    01:00 -8°C° 0 mm 1 mps 733 mmHg 87%
    02:00 -8°C° 0 mm 1 mps 733 mmHg 84%
    03:00 -9°C° 0 mm 1 mps 733 mmHg 84%
    04:00 -10°C° 0 mm 1 mps 732 mmHg 83%
    05:00 -10°C° 0 mm 1 mps 732 mmHg 84%
    06:00 -10°C° 0 mm 1 mps 732 mmHg 83%
    07:00 -11°C° 0 mm 1 mps 732 mmHg 85%
    08:00 -11°C° 0 mm 1 mps 732 mmHg 86%
    09:00 -10°C° 0 mm 1 mps 732 mmHg 90%
    10:00 -9°C° 0 mm 1 mps 732 mmHg 97%
    11:00 -8°C° 0 mm 2 mps 732 mmHg 100%
    12:00 -7°C° 0 mm 2 mps 732 mmHg 100%
    13:00 -5°C° 0 mm 3 mps 732 mmHg 99%
    14:00 -4°C° 0 mm 5 mps 732 mmHg 95%
    15:00 -4°C° 0 mm 6 mps 732 mmHg 96%
    16:00 -5°C° 0 mm 5 mps 732 mmHg 99%
    17:00 -6°C° 0 mm 5 mps 732 mmHg 100%
    18:00 -6°C° 0 mm 5 mps 732 mmHg 100%
    19:00 -7°C° 0 mm 4 mps 732 mmHg 100%
    20:00 -7°C° 0 mm 4 mps 731 mmHg 100%
    21:00 -7°C° 0 mm 4 mps 731 mmHg 100%
    22:00 -7°C° 0 mm 3 mps 731 mmHg 100%
    23:00 -7°C° 0 mm 3 mps 731 mmHg 99%

    Day after tomorrow, 21 February, Wednesday

    Time Temperature Precipitation Wind Pressure Humidity
    00:00 -7°C° 0 mm 3 mps 731 mmHg 99%
    01:00 -7°C° 0.1 mm 3 mps 731 mmHg 100%
    02:00 -8°C° 0 mm 3 mps 731 mmHg 100%
    03:00 -7°C° 0 mm 2 mps 731 mmHg 100%
    04:00 -7°C° 0 mm 2 mps 731 mmHg 100%
    05:00 -7°C° 0 mm 2 mps 731 mmHg 100%
    06:00 -7°C° 0 mm 2 mps 731 mmHg 100%
    07:00 -6°C° 0 mm 2 mps 731 mmHg 99%
    08:00 -7°C° 0 mm 2 mps 731 mmHg 100%
    09:00 -7°C° 0.1 mm 3 mps 731 mmHg 100%
    10:00 -6°C° 0 mm 3 mps 731 mmHg 100%
    11:00 -4°C° 0 mm 4 mps 730 mmHg 99%
    12:00 -2°C° 0 mm 5 mps 730 mmHg 96%
    13:00 -1°C° 0 mm 5 mps 730 mmHg 92%
    14:00 -1°C° 0 mm 5 mps 730 mmHg 93%
    15:00 -1°C° 0 mm 5 mps 729 mmHg 98%
    16:00 -2°C° 0 mm 4 mps 729 mmHg 99%
    17:00 -1°C° 0 mm 3 mps 729 mmHg 100%
    18:00 -1°C° 0 mm 1 mps 729 mmHg 100%
    19:00 -1°C° 0 mm 1 mps 729 mmHg 100%
    20:00 -1°C° 0 mm 1 mps 729 mmHg 100%
    21:00 -2°C° 0 mm 1 mps 729 mmHg 100%
    22:00 -4°C° 0 mm 1 mps 729 mmHg 100%
    23:00 -4°C° 0 mm 1 mps 729 mmHg 100%

    22 February, Thursday

    Time Temperature Precipitation Wind Pressure Humidity
    00:00 -6°C° 0 mm 1 mps 729 mmHg 100%
    01:00 -6°C° 0 mm 1 mps 729 mmHg 100%
    02:00 -7°C° 0 mm 1 mps 729 mmHg 100%
    03:00 -7°C° 0 mm 0 mps 729 mmHg 100%
    04:00 -7°C° 0 mm 0 mps 729 mmHg 100%
    05:00 -8°C° 0 mm 0 mps 729 mmHg 100%
    06:00 -8°C° 0 mm 0 mps 729 mmHg 100%
    07:00 -9°C° 0 mm 0 mps 729 mmHg 100%
    08:00 -9°C° 0 mm 0 mps 729 mmHg 100%
    09:00 -9°C° 0 mm 0 mps 729 mmHg 100%
    10:00 -8°C° 0 mm 0 mps 730 mmHg 100%
    11:00 -8°C° 0 mm 1 mps 730 mmHg 100%
    12:00 -7°C° 0 mm 1 mps 730 mmHg 100%
    13:00 -6°C° 0 mm 1 mps 730 mmHg 100%
    14:00 -6°C° 0 mm 2 mps 729 mmHg 100%
    15:00 -6°C° 0 mm 2 mps 729 mmHg 100%
    16:00 -4°C° 0 mm 1 mps 729 mmHg 100%
    17:00 -3°C° 0 mm 1 mps 729 mmHg 100%
    18:00 -6°C° 0 mm 2 mps 729 mmHg 100%
    19:00 -6°C° 0.1 mm 2 mps 729 mmHg 100%
    20:00 -6°C° 0.3 mm 1 mps 729 mmHg 100%
    21:00 -6°C° 0.4 mm 1 mps 729 mmHg 100%
    22:00 -6°C° 0.3 mm 1 mps 729 mmHg 100%
    23:00 -6°C° 0.3 mm 1 mps 729 mmHg 100%

    23 February, Friday

    Time Temperature Precipitation Wind Pressure Humidity
    00:00 -6°C° 0.3 mm 1 mps 729 mmHg 100%
    01:00 -6°C° 0.1 mm 1 mps 728 mmHg 100%
    02:00 -6°C° 0.1 mm 1 mps 728 mmHg 100%

    24 February, Saturday

    Time Temperature Precipitation Wind Pressure Humidity
    Show more